GRBBETA

Last updated on Sat Jun 21 2025 00:03:43 GMT+0000 (Coordinated Universal Time)

1 60237U 24128C 25171.11668260 .00003555 00000+0 27270-3 0 9999 2 60237 61.9925 42.8180 0052763 59.9088 300.7219 15.02721677 51788
UTC large
Height (km)
Speed (km/s)
/
Latitude / Longitude
Inclination (degrees)
Orbital Period (minutes)
Azimuth
Elevation
Range (km)
Doppler Factor

Next 0 passes for location: London (51.5072 / 0.1276)

Sorry there are no passes over London.